Weather in Tolu

Colombia     9°31′15″N   75°34′33″W
В апреле 2022 года жителям России запретили посещать сайт meteo.paraplan.net по решению Генеральной прокуратуры. Аудитория сайта уменьшилась в 10 раз. Владельцы сайта не видят смысла в поддержке погодного сервера в таких условиях. Сайт будет закрыт в октябре.
temp.,
°C
wind,
m/s
gust,
m/s
humid.,
%
clouds,
%
prec.,
mm/h
press.,
hPa
HPBL,
m
2 october, sun
sun201:00+24ese118997 0.3 101236
04:00+23se2290100 0.0 101252
07:00+24ese349135 0.0 1013144
10:00+29ese237373 0.0 1013779
13:00+30w116461 0.0 10101076
16:00+28nw44808 0.3 1009428
19:00+25n34895 0.3 1011155
22:00+24nne35925 0.0 1012124
3 october, mon
mon301:00+24nne35925 0.1 1011127
04:00+24nne349362 1.6 1010126
07:00+25e129035 1.7 1011105
10:00+29s227615 0.0 1012795
13:00+30w227067 0.1 10091033
16:00+28wnw348097 0.1 1007335
19:00+26nw338999 0.2 1009134
22:00+25n229176 0.4 1010106
4 october, tue
tue401:00+25nne119199 1.5 100931
04:00+24se119196 0.4 100921
07:00+25s239157 1.0 1010130
10:00+29sw337668 0.3 1011801
13:00+29w447599 0.6 1009953
16:00+28w458294 0.5 1007668
19:00+26w338765 0.6 1009166
22:00+25nw1289100 1.5 1010144
5 october, wed
wed501:00+25wsw2390100 3.3 1009142
04:00+24ssw2393100 6.5 1008125
07:00+25ssw359499 7.4 1010268
10:00+27sw4484100 0.8 1012653
13:00+29w3378100 2.4 1009749
16:00+27wnw348597 1.4 1007555
19:00+25wnw338992 1.7 1010149
22:00+24w2292100 4.1 1011114
6 october, thu
thu601:00+24sw2394100 7.4 1010139
04:00+24wsw2394100 7.9 1010169
07:00+24wsw2395100 19.1 1011150
10:00+25sw339490 5.1 1013364
13:00+27w228282 5.4 1010643
16:00+26wnw2388100 1.3 1008233
19:00+25wnw1190100 3.6 101066
22:00+25sse1190100 1.1 101256